Regional Weather Roundup
Issued by NWS

Home | Current Version | Previous Version | Graphics & Text | Print | Product List | Glossary Off
Versions: 1 2 3 4 5 6 7 8 9 10 11 12 13 14 15 16 17 18 19 20 21 22 23 24 25 26 27 28 29 30 31 32 33 34 35 36 37 38 39 40 41 42 43 44 45 46 47 48 49 50

000
ASUS43 KFSD 170410
RWRSD

WEATHER ROUNDUP FOR SOUTH DAKOTA
NATIONAL WEATHER SERVICE SIOUX FALLS SD
1000 PM CST SAT DEC 16 2017

NOTE: "FAIR" INDICATES FEW OR NO CLOUDS BELOW 12,000 FEET WITH NO
SIGNIFICANT WEATHER AND/OR OBSTRUCTIONS TO VISIBILITY.


SDZ001>005-009-010-012>017-170500-
NORTHWEST AND NORTH CENTRAL SOUTH DAKOTA

CITY           SKY/WX    TMP DP  RH WIND       PRES   REMARKS
BUFFALO          N/A     29  24  82 NW6       29.99R WCI  23
FAITH            N/A     30  25  81 NW5       30.06R WCI  25
MOBRIDGE       CLOUDY    33  28  81 NW3       30.05R
$$

SDZ012>016-024>037-041>051-057-063-072>074-170500-
SOUTHWEST AND SOUTH CENTRAL SOUTH DAKOTA

CITY           SKY/WX    TMP DP  RH WIND       PRES   REMARKS
RAPID CTY ARPT CLOUDY    31  23  72 N7        30.06R WCI  24
PIERRE         CLOUDY    34  31  88 CALM      30.07R
CUSTER         FLURRIES  24  18  77 NE8       29.96S WCI  15
ELLSWORTH AFB  CLOUDY    33  23  67 N6        30.05R WCI  27
PHILIP         CLOUDY    33  30  88 W3        30.07R
PINE RIDGE     CLOUDY    32  26  78 N6        30.03S WCI  26
SPEARFISH      FLURRIES  28  28 100 S5        30.05S WCI  23
WINNER         CLOUDY    37  32  82 N9        30.05F
$$

SDZ004>011-016>023-039-040-170500-
NORTHEAST SOUTH DAKOTA

CITY           SKY/WX    TMP DP  RH WIND       PRES   REMARKS
ABERDEEN       CLOUDY    30  28  92 SW5       30.08R WCI  25
WATERTOWN      CLOUDY    28  28 100 CALM      30.05R
BROOKINGS      CLOUDY    32  30  92 NE5       30.06R WCI  27
SISSETON         N/A     28  27  96 S5        30.08R WCI  23
$$

SDZ017-020-022-023-036>040-048>070-170500-
SOUTHEAST SOUTH DAKOTA

CITY           SKY/WX    TMP DP  RH WIND       PRES   REMARKS
SIOUX FALLS    CLOUDY    28  27  96 N6        30.04F WCI  22
HURON          CLOUDY    32  31  96 CALM      30.08R
CHAMBERLAIN    CLOUDY    37  34  88 N3        30.07R
MITCHELL       CLOUDY    30  29  96 N6        30.07S WCI  24
YANKTON        PTCLDY    33  29  85 NE8       30.05R WCI  26
$$

ABBREVIATIONS USED IN REMARKS
   TC - TEMPERATURE IN CELSIUS
  WCI - WIND CHILL INDEX
   HX - HEAT INDEX
  VSB - VISIBILITY





USA.gov is the U.S. government's official web portal to all federal, state and local government web resources and services.